Year,Month,Day,Hour,Minute,Value (Times are PST for temperature in C)
2010,07,07,00,00,17.40
2010,07,07,00,01,17.40
2010,07,07,00,02,17.40
2010,07,07,00,03,17.40
2010,07,07,00,04,17.40
2010,07,07,00,05,17.40
2010,07,07,00,06,17.40
2010,07,07,00,07,17.40
2010,07,07,00,08,17.40
2010,07,07,00,09,17.40
2010,07,07,00,10,17.40
2010,07,07,00,11,17.50
2010,07,07,00,12,17.50
2010,07,07,00,13,17.50
2010,07,07,00,14,17.50
2010,07,07,00,15,17.60
2010,07,07,00,16,17.60
2010,07,07,00,17,17.60
2010,07,07,00,18,17.60
2010,07,07,00,19,17.60
2010,07,07,00,20,17.60
2010,07,07,00,21,17.60
2010,07,07,00,22,17.60
2010,07,07,00,23,17.60
2010,07,07,00,24,17.60
2010,07,07,00,25,17.60
2010,07,07,00,26,17.60
2010,07,07,00,27,17.60
2010,07,07,00,28,17.60
2010,07,07,00,29,17.60
2010,07,07,00,30,17.60
2010,07,07,00,31,17.70
2010,07,07,00,32,17.70
2010,07,07,00,33,17.80
2010,07,07,00,34,17.80
2010,07,07,00,35,17.90
2010,07,07,00,36,18.00
2010,07,07,00,37,18.10
2010,07,07,00,38,18.20
2010,07,07,00,39,18.30
2010,07,07,00,40,18.30
2010,07,07,00,41,18.40
2010,07,07,00,42,18.40
2010,07,07,00,43,18.40
2010,07,07,00,44,18.40
2010,07,07,00,45,18.50
2010,07,07,00,46,18.50
2010,07,07,00,47,18.50
2010,07,07,00,48,18.50
2010,07,07,00,49,18.50
2010,07,07,00,50,18.50
2010,07,07,00,51,18.50
2010,07,07,00,52,18.40
2010,07,07,00,53,18.30
2010,07,07,00,54,18.20
2010,07,07,00,55,18.10
2010,07,07,00,56,17.90
2010,07,07,00,57,17.80
2010,07,07,00,58,17.70
2010,07,07,00,59,17.60
2010,07,07,01,00,17.50
2010,07,07,01,01,17.40
2010,07,07,01,02,17.30
2010,07,07,01,03,17.30
2010,07,07,01,04,17.30
2010,07,07,01,05,17.20
2010,07,07,01,06,17.10
2010,07,07,01,07,17.10
2010,07,07,01,08,17.00
2010,07,07,01,09,16.90
2010,07,07,01,10,16.80
2010,07,07,01,11,16.70
2010,07,07,01,12,16.60
2010,07,07,01,13,16.50
2010,07,07,01,14,16.40
2010,07,07,01,15,16.40
2010,07,07,01,16,16.40
2010,07,07,01,17,16.30
2010,07,07,01,18,16.40
2010,07,07,01,19,16.50
2010,07,07,01,20,16.50
2010,07,07,01,21,16.60
2010,07,07,01,22,16.70
2010,07,07,01,23,16.80
2010,07,07,01,24,16.80
2010,07,07,01,25,16.80
2010,07,07,01,26,16.80
2010,07,07,01,27,16.80
2010,07,07,01,28,16.80
2010,07,07,01,29,16.80
2010,07,07,01,30,16.70
2010,07,07,01,31,16.70
2010,07,07,01,32,16.60
2010,07,07,01,33,16.60
2010,07,07,01,34,16.60
2010,07,07,01,35,16.60
2010,07,07,01,36,16.60
2010,07,07,01,37,16.70
2010,07,07,01,38,16.70
2010,07,07,01,39,16.70
2010,07,07,01,40,16.80
2010,07,07,01,41,16.80
2010,07,07,01,42,16.80
2010,07,07,01,43,16.80
2010,07,07,01,44,16.80
2010,07,07,01,45,16.80
2010,07,07,01,46,16.80
2010,07,07,01,47,16.80
2010,07,07,01,48,16.80
2010,07,07,01,49,16.80
2010,07,07,01,50,16.80
2010,07,07,01,51,16.80
2010,07,07,01,52,16.80
2010,07,07,01,53,16.70
2010,07,07,01,54,16.80
2010,07,07,01,55,16.80
2010,07,07,01,56,16.80
2010,07,07,01,57,16.80
2010,07,07,01,58,16.80
2010,07,07,01,59,16.80
2010,07,07,02,00,16.80
2010,07,07,02,01,16.80
2010,07,07,02,02,16.80
2010,07,07,02,03,16.80
2010,07,07,02,04,16.90
2010,07,07,02,05,16.90
2010,07,07,02,06,16.90
2010,07,07,02,07,16.90
2010,07,07,02,08,16.90
2010,07,07,02,09,17.00
2010,07,07,02,10,17.00
2010,07,07,02,11,17.10
2010,07,07,02,12,17.10
2010,07,07,02,13,17.10
2010,07,07,02,14,17.10
2010,07,07,02,15,17.10
2010,07,07,02,16,17.20
2010,07,07,02,17,17.20
2010,07,07,02,18,17.20
2010,07,07,02,19,17.20
2010,07,07,02,20,17.20
2010,07,07,02,21,17.20
2010,07,07,02,22,17.20
2010,07,07,02,23,17.20
2010,07,07,02,24,17.20
2010,07,07,02,25,17.20
2010,07,07,02,26,17.20
2010,07,07,02,27,17.20
2010,07,07,02,28,17.30
2010,07,07,02,29,17.30
2010,07,07,02,30,17.30
2010,07,07,02,31,17.30
2010,07,07,02,32,17.30
2010,07,07,02,33,17.40
2010,07,07,02,34,17.40
2010,07,07,02,35,17.40
2010,07,07,02,36,17.40
2010,07,07,02,37,17.40
2010,07,07,02,38,17.40
2010,07,07,02,39,17.40
2010,07,07,02,40,17.50
2010,07,07,02,41,17.50
2010,07,07,02,42,17.50
2010,07,07,02,43,17.60
2010,07,07,02,44,17.60
2010,07,07,02,45,17.60
2010,07,07,02,46,17.60
2010,07,07,02,47,17.60
2010,07,07,02,48,17.60
2010,07,07,02,49,17.60
2010,07,07,02,50,17.50
2010,07,07,02,51,17.50
2010,07,07,02,52,17.40
2010,07,07,02,53,17.30
2010,07,07,02,54,17.30
2010,07,07,02,55,17.20
2010,07,07,02,56,17.20
2010,07,07,02,57,17.10
2010,07,07,02,58,17.00
2010,07,07,02,59,17.00
2010,07,07,03,00,16.90
2010,07,07,03,01,16.80
2010,07,07,03,02,16.70
2010,07,07,03,03,16.60
2010,07,07,03,04,16.60
2010,07,07,03,05,16.50
2010,07,07,03,06,16.50
2010,07,07,03,07,16.40
2010,07,07,03,08,16.40
2010,07,07,03,09,16.40
2010,07,07,03,10,16.30
2010,07,07,03,11,16.30
2010,07,07,03,12,16.30
2010,07,07,03,13,16.30
2010,07,07,03,14,16.30
2010,07,07,03,15,16.30
2010,07,07,03,16,16.30
2010,07,07,03,17,16.30
2010,07,07,03,18,16.30
2010,07,07,03,19,16.30
2010,07,07,03,20,16.30
2010,07,07,03,21,16.30
2010,07,07,03,22,16.30
2010,07,07,03,23,16.30
2010,07,07,03,24,16.30
2010,07,07,03,25,16.30
2010,07,07,03,26,16.40
2010,07,07,03,27,16.40
2010,07,07,03,28,16.50
2010,07,07,03,29,16.60
2010,07,07,03,30,16.60
2010,07,07,03,31,16.70
2010,07,07,03,32,16.80
2010,07,07,03,33,16.90
2010,07,07,03,34,17.00
2010,07,07,03,35,17.10
2010,07,07,03,36,17.20
2010,07,07,03,37,17.30
2010,07,07,03,38,17.40
2010,07,07,03,39,17.40
2010,07,07,03,40,17.50
2010,07,07,03,41,17.60
2010,07,07,03,42,17.60
2010,07,07,03,43,17.70
2010,07,07,03,44,17.70
2010,07,07,03,45,17.80
2010,07,07,03,46,17.80
2010,07,07,03,47,17.80
2010,07,07,03,48,17.80
2010,07,07,03,49,17.80
2010,07,07,03,50,17.80
2010,07,07,03,51,17.90
2010,07,07,03,52,17.90
2010,07,07,03,53,17.90
2010,07,07,03,54,17.90
2010,07,07,03,55,17.80
2010,07,07,03,56,17.80
2010,07,07,03,57,17.80
2010,07,07,03,58,17.80
2010,07,07,03,59,17.80
2010,07,07,04,00,17.70
2010,07,07,04,01,17.60
2010,07,07,04,02,17.60
2010,07,07,04,03,17.50
2010,07,07,04,04,17.50
2010,07,07,04,05,17.40
2010,07,07,04,06,17.30
2010,07,07,04,07,17.30
2010,07,07,04,08,17.30
2010,07,07,04,09,17.20
2010,07,07,04,10,17.20
2010,07,07,04,11,17.10
2010,07,07,04,12,17.10
2010,07,07,04,13,17.00
2010,07,07,04,14,16.90
2010,07,07,04,15,16.80
2010,07,07,04,16,16.80
2010,07,07,04,17,16.70
2010,07,07,04,18,16.60
2010,07,07,04,19,16.50
2010,07,07,04,20,16.40
2010,07,07,04,21,16.30
2010,07,07,04,22,16.20
2010,07,07,04,23,16.10
2010,07,07,04,24,16.00
2010,07,07,04,25,16.00
2010,07,07,04,26,16.00
2010,07,07,04,27,16.00
2010,07,07,04,28,16.00
2010,07,07,04,29,16.00
2010,07,07,04,30,16.00
2010,07,07,04,31,16.00
2010,07,07,04,32,16.10
2010,07,07,04,33,16.10
2010,07,07,04,34,16.10
2010,07,07,04,35,16.20
2010,07,07,04,36,16.20
2010,07,07,04,37,16.30
2010,07,07,04,38,16.30
2010,07,07,04,39,16.30
2010,07,07,04,40,16.40
2010,07,07,04,41,16.40
2010,07,07,04,42,16.50
2010,07,07,04,43,16.50
2010,07,07,04,44,16.60
2010,07,07,04,45,16.60
2010,07,07,04,46,16.70
2010,07,07,04,47,16.70
2010,07,07,04,48,16.70
2010,07,07,04,49,16.70
2010,07,07,04,50,16.70
2010,07,07,04,51,16.70
2010,07,07,04,52,16.60
2010,07,07,04,53,16.60
2010,07,07,04,54,16.60
2010,07,07,04,55,16.60
2010,07,07,04,56,16.50
2010,07,07,04,57,16.50
2010,07,07,04,58,16.50
2010,07,07,04,59,16.50
2010,07,07,05,00,16.50
2010,07,07,05,01,16.50
2010,07,07,05,02,16.50
2010,07,07,05,03,16.50
2010,07,07,05,04,16.50
2010,07,07,05,05,16.60
2010,07,07,05,06,16.60
2010,07,07,05,07,16.70
2010,07,07,05,08,16.70
2010,07,07,05,09,16.70
2010,07,07,05,10,16.80
2010,07,07,05,11,16.80
2010,07,07,05,12,16.80
2010,07,07,05,13,16.90
2010,07,07,05,14,16.90
2010,07,07,05,15,16.90
2010,07,07,05,16,17.00
2010,07,07,05,17,17.00
2010,07,07,05,18,17.00
2010,07,07,05,19,17.00
2010,07,07,05,20,17.00
2010,07,07,05,21,16.90
2010,07,07,05,22,16.90
2010,07,07,05,23,16.90
2010,07,07,05,24,16.90
2010,07,07,05,25,16.90
2010,07,07,05,26,16.90
2010,07,07,05,27,17.00
2010,07,07,05,28,17.00
2010,07,07,05,29,17.10
2010,07,07,05,30,17.10
2010,07,07,05,31,17.20
2010,07,07,05,32,17.20
2010,07,07,05,33,17.30
2010,07,07,05,34,17.30
2010,07,07,05,35,17.40
2010,07,07,05,36,17.50
2010,07,07,05,37,17.50
2010,07,07,05,38,17.60
2010,07,07,05,39,17.60
2010,07,07,05,40,17.60
2010,07,07,05,41,17.70
2010,07,07,05,42,17.70
2010,07,07,05,43,17.70
2010,07,07,05,44,17.70
2010,07,07,05,45,17.70
2010,07,07,05,46,17.70
2010,07,07,05,47,17.70
2010,07,07,05,48,17.70
2010,07,07,05,49,17.70
2010,07,07,05,50,17.70
2010,07,07,05,51,17.70
2010,07,07,05,52,17.70
2010,07,07,05,53,17.70
2010,07,07,05,54,17.70
2010,07,07,05,55,17.70
2010,07,07,05,56,17.60
2010,07,07,05,57,17.60
2010,07,07,05,58,17.60
2010,07,07,05,59,17.60
2010,07,07,06,00,17.60
2010,07,07,06,01,17.60
2010,07,07,06,02,17.60
2010,07,07,06,03,17.60
2010,07,07,06,04,17.60
2010,07,07,06,05,17.70
2010,07,07,06,06,17.70
2010,07,07,06,07,17.70
2010,07,07,06,08,17.70
2010,07,07,06,09,17.70
2010,07,07,06,10,17.70
2010,07,07,06,11,17.80
2010,07,07,06,12,17.80
2010,07,07,06,13,17.80
2010,07,07,06,14,17.80
2010,07,07,06,15,17.80
2010,07,07,06,16,17.80
2010,07,07,06,17,17.80
2010,07,07,06,18,17.80
2010,07,07,06,19,17.90
2010,07,07,06,20,17.90
2010,07,07,06,21,17.90
2010,07,07,06,22,17.90
2010,07,07,06,23,17.90
2010,07,07,06,24,18.00
2010,07,07,06,25,18.00
2010,07,07,06,26,18.00
2010,07,07,06,27,18.10
2010,07,07,06,28,18.10
2010,07,07,06,29,18.10
2010,07,07,06,30,18.10
2010,07,07,06,31,18.10
2010,07,07,06,32,18.10
2010,07,07,06,33,18.20
2010,07,07,06,34,18.20
2010,07,07,06,35,18.20
2010,07,07,06,36,18.20
2010,07,07,06,37,18.20
2010,07,07,06,38,18.20
2010,07,07,06,39,18.30
2010,07,07,06,40,18.30
2010,07,07,06,41,18.30
2010,07,07,06,42,18.30
2010,07,07,06,43,18.30
2010,07,07,06,44,18.30
2010,07,07,06,45,18.30
2010,07,07,06,46,18.30
2010,07,07,06,47,18.30
2010,07,07,06,48,18.30
2010,07,07,06,49,18.30
2010,07,07,06,50,18.30
2010,07,07,06,51,18.30
2010,07,07,06,52,18.30
2010,07,07,06,53,18.40
2010,07,07,06,54,18.40
2010,07,07,06,55,18.40
2010,07,07,06,56,18.40
2010,07,07,06,57,18.40
2010,07,07,06,58,18.40
2010,07,07,06,59,18.40
2010,07,07,07,00,18.50
2010,07,07,07,01,18.50
2010,07,07,07,02,18.50
2010,07,07,07,03,18.50
2010,07,07,07,04,18.50
2010,07,07,07,05,18.50
2010,07,07,07,06,18.60
2010,07,07,07,07,18.60
2010,07,07,07,08,18.60
2010,07,07,07,09,18.60
2010,07,07,07,10,18.60
2010,07,07,07,11,18.60
2010,07,07,07,12,18.70
2010,07,07,07,13,18.70
2010,07,07,07,14,18.70
2010,07,07,07,15,18.70
2010,07,07,07,16,18.80
2010,07,07,07,17,18.80
2010,07,07,07,18,18.80
2010,07,07,07,19,18.90
2010,07,07,07,20,18.90
2010,07,07,07,21,18.90
2010,07,07,07,22,19.00
2010,07,07,07,23,19.00
2010,07,07,07,24,19.00
2010,07,07,07,25,19.10
2010,07,07,07,26,19.10
2010,07,07,07,27,19.10
2010,07,07,07,28,19.10
2010,07,07,07,29,19.10
2010,07,07,07,30,19.10
2010,07,07,07,31,19.10
2010,07,07,07,32,19.10
2010,07,07,07,33,19.20
2010,07,07,07,34,19.20
2010,07,07,07,35,19.20
2010,07,07,07,36,19.20
2010,07,07,07,37,19.30
2010,07,07,07,38,19.30
2010,07,07,07,39,19.30
2010,07,07,07,40,19.30
2010,07,07,07,41,19.30
2010,07,07,07,42,19.30
2010,07,07,07,43,19.30
2010,07,07,07,44,19.30
2010,07,07,07,45,19.40
2010,07,07,07,46,19.40
2010,07,07,07,47,19.40
2010,07,07,07,48,19.40
2010,07,07,07,49,19.50
2010,07,07,07,50,19.50
2010,07,07,07,51,19.50
2010,07,07,07,52,19.50
2010,07,07,07,53,19.50
2010,07,07,07,54,19.50
2010,07,07,07,55,19.40
2010,07,07,07,56,19.40
2010,07,07,07,57,19.40
2010,07,07,07,58,19.40
2010,07,07,07,59,19.40
2010,07,07,08,00,19.40
2010,07,07,08,01,19.40
2010,07,07,08,02,19.50
2010,07,07,08,03,19.50
2010,07,07,08,04,19.50
2010,07,07,08,05,19.50
2010,07,07,08,06,19.50
2010,07,07,08,07,19.60
2010,07,07,08,08,19.60
2010,07,07,08,09,19.60
2010,07,07,08,10,19.70
2010,07,07,08,11,19.70
2010,07,07,08,12,19.70
2010,07,07,08,13,19.70
2010,07,07,08,14,19.80
2010,07,07,08,15,19.80
2010,07,07,08,16,19.80
2010,07,07,08,17,19.80
2010,07,07,08,18,19.90
2010,07,07,08,19,20.00
2010,07,07,08,20,20.00
2010,07,07,08,21,20.10
2010,07,07,08,22,20.10
2010,07,07,08,23,20.10
2010,07,07,08,24,20.10
2010,07,07,08,25,20.20
2010,07,07,08,26,20.20
2010,07,07,08,27,20.20
2010,07,07,08,28,20.20
2010,07,07,08,29,20.30
2010,07,07,08,30,20.30
2010,07,07,08,31,20.20
2010,07,07,08,32,20.20
2010,07,07,08,33,20.20
2010,07,07,08,34,20.20
2010,07,07,08,35,20.30
2010,07,07,08,36,20.30
2010,07,07,08,37,20.30
2010,07,07,08,38,20.30
2010,07,07,08,39,20.30
2010,07,07,08,40,20.30
2010,07,07,08,41,20.30
2010,07,07,08,42,20.30
2010,07,07,08,43,20.30
2010,07,07,08,44,20.40
2010,07,07,08,45,20.50
2010,07,07,08,46,20.50
2010,07,07,08,47,20.60
2010,07,07,08,48,20.60
2010,07,07,08,49,20.60
2010,07,07,08,50,20.70
2010,07,07,08,51,20.70
2010,07,07,08,52,20.70
2010,07,07,08,53,20.60
2010,07,07,08,54,20.60
2010,07,07,08,55,20.60
2010,07,07,08,56,20.60
2010,07,07,08,57,20.60
2010,07,07,08,58,20.60
2010,07,07,08,59,20.70
2010,07,07,09,00,20.70
2010,07,07,09,01,20.80
2010,07,07,09,02,20.80
2010,07,07,09,03,20.90
2010,07,07,09,04,21.00
2010,07,07,09,05,21.00
2010,07,07,09,06,21.00
2010,07,07,09,07,21.10
2010,07,07,09,08,21.00
2010,07,07,09,09,21.10
2010,07,07,09,10,21.10
2010,07,07,09,11,21.10
2010,07,07,09,12,21.10
2010,07,07,09,13,21.10
2010,07,07,09,14,21.20
2010,07,07,09,15,21.20
2010,07,07,09,16,21.20
2010,07,07,09,17,21.30
2010,07,07,09,18,21.30
2010,07,07,09,19,21.20
2010,07,07,09,20,21.20
2010,07,07,09,21,21.20
2010,07,07,09,22,21.30
2010,07,07,09,23,21.40
2010,07,07,09,24,21.40
2010,07,07,09,25,21.40
2010,07,07,09,26,21.40
2010,07,07,09,27,21.30
2010,07,07,09,28,21.30
2010,07,07,09,29,21.40
2010,07,07,09,30,21.40
2010,07,07,09,31,21.40
2010,07,07,09,32,21.40
2010,07,07,09,33,21.40
2010,07,07,09,34,21.40
2010,07,07,09,35,21.40
2010,07,07,09,36,21.50
2010,07,07,09,37,21.50
2010,07,07,09,38,21.50
2010,07,07,09,39,21.50
2010,07,07,09,40,21.50
2010,07,07,09,41,21.60
2010,07,07,09,42,21.60
2010,07,07,09,43,21.60
2010,07,07,09,44,21.60
2010,07,07,09,45,21.70
2010,07,07,09,46,21.80
2010,07,07,09,47,21.80
2010,07,07,09,48,21.90
2010,07,07,09,49,21.90
2010,07,07,09,50,22.00
2010,07,07,09,51,22.00
2010,07,07,09,52,22.00
2010,07,07,09,53,22.00
2010,07,07,09,54,21.90
2010,07,07,09,55,21.90
2010,07,07,09,56,22.00
2010,07,07,09,57,22.00
2010,07,07,09,58,22.10
2010,07,07,09,59,22.20
2010,07,07,10,00,22.30
2010,07,07,10,01,22.30
2010,07,07,10,02,22.20
2010,07,07,10,03,22.20
2010,07,07,10,04,22.20
2010,07,07,10,05,22.20
2010,07,07,10,06,22.20
2010,07,07,10,07,22.20
2010,07,07,10,08,22.30
2010,07,07,10,09,22.40
2010,07,07,10,10,22.40
2010,07,07,10,11,22.40
2010,07,07,10,12,22.50
2010,07,07,10,13,22.60
2010,07,07,10,14,22.70
2010,07,07,10,15,22.70
2010,07,07,10,16,22.70
2010,07,07,10,17,22.60
2010,07,07,10,18,22.60
2010,07,07,10,19,22.50
2010,07,07,10,20,22.50
2010,07,07,10,21,22.50
2010,07,07,10,22,22.50
2010,07,07,10,23,22.50
2010,07,07,10,24,22.50
2010,07,07,10,25,22.50
2010,07,07,10,26,22.50
2010,07,07,10,27,22.50
2010,07,07,10,28,22.50
2010,07,07,10,29,22.50
2010,07,07,10,30,22.50
2010,07,07,10,31,22.50
2010,07,07,10,32,22.50
2010,07,07,10,33,22.60
2010,07,07,10,34,22.60
2010,07,07,10,35,22.70
2010,07,07,10,36,22.70
2010,07,07,10,37,22.70
2010,07,07,10,38,22.80
2010,07,07,10,39,22.80
2010,07,07,10,40,22.80
2010,07,07,10,41,22.80
2010,07,07,10,42,22.80
2010,07,07,10,43,22.80
2010,07,07,10,44,22.90
2010,07,07,10,45,22.90
2010,07,07,10,46,23.00
2010,07,07,10,47,23.00
2010,07,07,10,48,23.10
2010,07,07,10,49,23.20
2010,07,07,10,50,23.20
2010,07,07,10,51,23.20
2010,07,07,10,52,23.10
2010,07,07,10,53,23.00
2010,07,07,10,54,22.90
2010,07,07,10,55,22.90
2010,07,07,10,56,23.00
2010,07,07,10,57,23.00
2010,07,07,10,58,23.10
2010,07,07,10,59,23.00
2010,07,07,11,00,23.00
2010,07,07,11,01,23.10
2010,07,07,11,02,23.20
2010,07,07,11,03,23.30
2010,07,07,11,04,23.40
2010,07,07,11,05,23.40
2010,07,07,11,06,23.30
2010,07,07,11,07,23.30
2010,07,07,11,08,23.30
2010,07,07,11,09,23.30
2010,07,07,11,10,23.20
2010,07,07,11,11,23.30
2010,07,07,11,12,23.30
2010,07,07,11,13,23.40
2010,07,07,11,14,23.50
2010,07,07,11,15,23.50
2010,07,07,11,16,23.60
2010,07,07,11,17,23.70
2010,07,07,11,18,23.80
2010,07,07,11,19,23.80
2010,07,07,11,20,23.90
2010,07,07,11,21,24.00
2010,07,07,11,22,24.00
2010,07,07,11,23,24.10
2010,07,07,11,24,24.10
2010,07,07,11,25,24.10
2010,07,07,11,26,24.10
2010,07,07,11,27,24.00
2010,07,07,11,28,24.00
2010,07,07,11,29,24.00
2010,07,07,11,30,24.00
2010,07,07,11,31,23.90
2010,07,07,11,32,23.90
2010,07,07,11,33,23.90
2010,07,07,11,34,23.90
2010,07,07,11,35,23.90
2010,07,07,11,36,23.90
2010,07,07,11,37,23.90
2010,07,07,11,38,24.00
2010,07,07,11,39,24.00
2010,07,07,11,40,24.00
2010,07,07,11,41,24.00
2010,07,07,11,42,23.90
2010,07,07,11,43,23.90
2010,07,07,11,44,23.90
2010,07,07,11,45,23.90
2010,07,07,11,46,23.80
2010,07,07,11,47,23.80
2010,07,07,11,48,23.80
2010,07,07,11,49,23.80
2010,07,07,11,50,23.90
2010,07,07,11,51,23.90
2010,07,07,11,52,24.00
2010,07,07,11,53,24.10
2010,07,07,11,54,24.10
2010,07,07,11,55,24.20
2010,07,07,11,56,24.30
2010,07,07,11,57,24.40
2010,07,07,11,58,24.40
2010,07,07,11,59,24.40
2010,07,07,12,00,24.40
2010,07,07,12,01,24.40
2010,07,07,12,02,24.40
2010,07,07,12,03,24.40
2010,07,07,12,04,24.50
2010,07,07,12,05,24.50
2010,07,07,12,06,24.50
2010,07,07,12,07,24.60
2010,07,07,12,08,24.70
2010,07,07,12,09,24.80
2010,07,07,12,10,24.80
2010,07,07,12,11,24.80
2010,07,07,12,12,24.90
2010,07,07,12,13,24.90
2010,07,07,12,14,24.90
2010,07,07,12,15,25.00
2010,07,07,12,16,25.00
2010,07,07,12,17,25.00
2010,07,07,12,18,25.00
2010,07,07,12,19,25.00
2010,07,07,12,20,25.00
2010,07,07,12,21,25.00
2010,07,07,12,22,25.10
2010,07,07,12,23,25.10
2010,07,07,12,24,25.00
2010,07,07,12,25,25.00
2010,07,07,12,26,24.90
2010,07,07,12,27,24.90
2010,07,07,12,28,24.90
2010,07,07,12,29,25.00
2010,07,07,12,30,25.10
2010,07,07,12,31,25.30
2010,07,07,12,32,25.50
2010,07,07,12,33,25.60
2010,07,07,12,34,25.50
2010,07,07,12,35,25.40
2010,07,07,12,36,25.30
2010,07,07,12,37,25.40
2010,07,07,12,38,25.40
2010,07,07,12,39,25.40
2010,07,07,12,40,25.30
2010,07,07,12,41,25.20
2010,07,07,12,42,25.20
2010,07,07,12,43,25.10
2010,07,07,12,44,25.10
2010,07,07,12,45,25.00
2010,07,07,12,46,24.80
2010,07,07,12,47,24.80
2010,07,07,12,48,24.70
2010,07,07,12,49,24.80
2010,07,07,12,50,24.90
2010,07,07,12,51,24.90
2010,07,07,12,52,24.90
2010,07,07,12,53,24.90
2010,07,07,12,54,25.00
2010,07,07,12,55,25.10
2010,07,07,12,56,25.20
2010,07,07,12,57,25.10
2010,07,07,12,58,25.10
2010,07,07,12,59,25.10
2010,07,07,13,00,25.10
2010,07,07,13,01,25.10
2010,07,07,13,02,25.20
2010,07,07,13,03,25.30
2010,07,07,13,04,25.30
2010,07,07,13,05,25.50
2010,07,07,13,06,25.60
2010,07,07,13,07,25.70
2010,07,07,13,08,25.60
2010,07,07,13,09,25.60
2010,07,07,13,10,25.40
2010,07,07,13,11,25.40
2010,07,07,13,12,25.40
2010,07,07,13,13,25.40
2010,07,07,13,14,25.40
2010,07,07,13,15,25.40
2010,07,07,13,16,25.30
2010,07,07,13,17,25.30
2010,07,07,13,18,25.30
2010,07,07,13,19,25.30
2010,07,07,13,20,25.30
2010,07,07,13,21,25.30
2010,07,07,13,22,25.40
2010,07,07,13,23,25.50
2010,07,07,13,24,25.60
2010,07,07,13,25,25.60
2010,07,07,13,26,25.60
2010,07,07,13,27,25.70
2010,07,07,13,28,25.90
2010,07,07,13,29,25.90
2010,07,07,13,30,26.00
2010,07,07,13,31,26.10
2010,07,07,13,32,26.10
2010,07,07,13,33,26.10
2010,07,07,13,34,26.10
2010,07,07,13,35,26.10
2010,07,07,13,36,26.00
2010,07,07,13,37,26.00
2010,07,07,13,38,26.10
2010,07,07,13,39,26.10
2010,07,07,13,40,26.20
2010,07,07,13,41,26.20
2010,07,07,13,42,26.30
2010,07,07,13,43,26.30
2010,07,07,13,44,26.20
2010,07,07,13,45,26.20
2010,07,07,13,46,26.10
2010,07,07,13,47,26.10
2010,07,07,13,48,26.00
2010,07,07,13,49,26.10
2010,07,07,13,50,26.20
2010,07,07,13,51,26.30
2010,07,07,13,52,26.30
2010,07,07,13,53,26.40
2010,07,07,13,54,26.60
2010,07,07,13,55,26.70
2010,07,07,13,56,26.80
2010,07,07,13,57,26.90
2010,07,07,13,58,26.90
2010,07,07,13,59,26.90
2010,07,07,14,00,26.90
2010,07,07,14,01,26.90
2010,07,07,14,02,26.80
2010,07,07,14,03,26.80
2010,07,07,14,04,26.70
2010,07,07,14,05,26.70
2010,07,07,14,06,26.70
2010,07,07,14,07,26.70
2010,07,07,14,08,26.70
2010,07,07,14,09,26.60
2010,07,07,14,10,26.60
2010,07,07,14,11,26.50
2010,07,07,14,12,26.50
2010,07,07,14,13,26.60
2010,07,07,14,14,26.70
2010,07,07,14,15,26.80
2010,07,07,14,16,26.80
2010,07,07,14,17,26.90
2010,07,07,14,18,27.00
2010,07,07,14,19,27.10
2010,07,07,14,20,27.10
2010,07,07,14,21,27.10
2010,07,07,14,22,27.00
2010,07,07,14,23,27.00
2010,07,07,14,24,26.90
2010,07,07,14,25,27.00
2010,07,07,14,26,27.00
2010,07,07,14,27,27.10
2010,07,07,14,28,27.20
2010,07,07,14,29,27.30
2010,07,07,14,30,27.30
2010,07,07,14,31,27.40
2010,07,07,14,32,27.50
2010,07,07,14,33,27.60
2010,07,07,14,34,27.70
2010,07,07,14,35,27.90
2010,07,07,14,36,27.90
2010,07,07,14,37,28.00
2010,07,07,14,38,28.00
2010,07,07,14,39,28.00
2010,07,07,14,40,28.00
2010,07,07,14,41,28.00
2010,07,07,14,42,28.00
2010,07,07,14,43,28.00
2010,07,07,14,44,28.00
2010,07,07,14,45,27.90
2010,07,07,14,46,27.90
2010,07,07,14,47,27.80
2010,07,07,14,48,27.70
2010,07,07,14,49,27.80
2010,07,07,14,50,27.80
2010,07,07,14,51,27.80
2010,07,07,14,52,27.90
2010,07,07,14,53,27.90
2010,07,07,14,54,27.90
2010,07,07,14,55,27.90
2010,07,07,14,56,27.90
2010,07,07,14,57,27.90
2010,07,07,14,58,27.90
2010,07,07,14,59,27.90
2010,07,07,15,00,27.90
2010,07,07,15,01,28.00
2010,07,07,15,02,28.10
2010,07,07,15,03,28.20
2010,07,07,15,04,28.20
2010,07,07,15,05,28.20
2010,07,07,15,06,28.20
2010,07,07,15,07,28.20
2010,07,07,15,08,28.10
2010,07,07,15,09,28.10
2010,07,07,15,10,28.10
2010,07,07,15,11,28.10
2010,07,07,15,12,28.00
2010,07,07,15,13,28.00
2010,07,07,15,14,28.10
2010,07,07,15,15,28.10
2010,07,07,15,16,28.20
2010,07,07,15,17,28.20
2010,07,07,15,18,28.30
2010,07,07,15,19,28.50
2010,07,07,15,20,28.60
2010,07,07,15,21,28.70
2010,07,07,15,22,28.80
2010,07,07,15,23,28.70
2010,07,07,15,24,28.70
2010,07,07,15,25,28.70
2010,07,07,15,26,28.70
2010,07,07,15,27,28.70
2010,07,07,15,28,28.60
2010,07,07,15,29,28.50
2010,07,07,15,30,28.50
2010,07,07,15,31,28.40
2010,07,07,15,32,28.40
2010,07,07,15,33,28.50
2010,07,07,15,34,28.50
2010,07,07,15,35,28.60
2010,07,07,15,36,28.50
2010,07,07,15,37,28.40
2010,07,07,15,38,28.40
2010,07,07,15,39,28.40
2010,07,07,15,40,28.30
2010,07,07,15,41,28.30
2010,07,07,15,42,28.20
2010,07,07,15,43,28.20
2010,07,07,15,44,28.10
2010,07,07,15,45,28.10
2010,07,07,15,46,28.10
2010,07,07,15,47,28.10
2010,07,07,15,48,28.10
2010,07,07,15,49,28.20
2010,07,07,15,50,28.20
2010,07,07,15,51,28.20
2010,07,07,15,52,28.20
2010,07,07,15,53,28.20
2010,07,07,15,54,28.30
2010,07,07,15,55,28.30
2010,07,07,15,56,28.30
2010,07,07,15,57,28.20
2010,07,07,15,58,28.30
2010,07,07,15,59,28.40
2010,07,07,16,00,28.40
2010,07,07,16,01,28.40
2010,07,07,16,02,28.40
2010,07,07,16,03,28.40
2010,07,07,16,04,28.40
2010,07,07,16,05,28.40
2010,07,07,16,06,28.50
2010,07,07,16,07,28.60
2010,07,07,16,08,28.70
2010,07,07,16,09,28.70
2010,07,07,16,10,28.70
2010,07,07,16,11,28.80
2010,07,07,16,12,28.80
2010,07,07,16,13,28.80
2010,07,07,16,14,28.80
2010,07,07,16,15,28.80
2010,07,07,16,16,28.80
2010,07,07,16,17,28.80
2010,07,07,16,18,28.80
2010,07,07,16,19,28.80
2010,07,07,16,20,28.80
2010,07,07,16,21,28.80
2010,07,07,16,22,28.80
2010,07,07,16,23,28.90
2010,07,07,16,24,28.90
2010,07,07,16,25,28.90
2010,07,07,16,26,28.90
2010,07,07,16,27,28.90
2010,07,07,16,28,28.90
2010,07,07,16,29,28.80
2010,07,07,16,30,28.70
2010,07,07,16,31,28.70
2010,07,07,16,32,28.60
2010,07,07,16,33,28.60
2010,07,07,16,34,28.60
2010,07,07,16,35,28.60
2010,07,07,16,36,28.60
2010,07,07,16,37,28.60
2010,07,07,16,38,28.60
2010,07,07,16,39,28.70
2010,07,07,16,40,28.70
2010,07,07,16,41,28.80
2010,07,07,16,42,28.90
2010,07,07,16,43,29.00
2010,07,07,16,44,29.00
2010,07,07,16,45,29.00
2010,07,07,16,46,29.00
2010,07,07,16,47,29.00
2010,07,07,16,48,29.00
2010,07,07,16,49,29.00
2010,07,07,16,50,28.90
2010,07,07,16,51,28.90
2010,07,07,16,52,28.80
2010,07,07,16,53,28.70
2010,07,07,16,54,28.70
2010,07,07,16,55,28.70
2010,07,07,16,56,28.70
2010,07,07,16,57,28.70
2010,07,07,16,58,28.70
2010,07,07,16,59,28.70
2010,07,07,17,00,28.70
2010,07,07,17,01,28.70
2010,07,07,17,02,28.80
2010,07,07,17,03,28.80
2010,07,07,17,04,28.80
2010,07,07,17,05,28.80
2010,07,07,17,06,28.90
2010,07,07,17,07,29.00
2010,07,07,17,08,29.00
2010,07,07,17,09,29.00
2010,07,07,17,10,28.90
2010,07,07,17,11,28.80
2010,07,07,17,12,28.80
2010,07,07,17,13,28.80
2010,07,07,17,14,28.80
2010,07,07,17,15,28.70
2010,07,07,17,16,28.70
2010,07,07,17,17,28.70
2010,07,07,17,18,28.80
2010,07,07,17,19,28.90